Victoria, British Columbia

3:47 AM PDT on May 24, 2018 (GMT -0700)
Victoria International

Weather History for CYYJ - September, 2012

Change the Weather History Date:

Saturday, September 15, 2012

  Actual Average Record
Temperature  
Mean Temperature 58 °F -  
Max Temperature 69 °F 62 °F 81 °F (2014)
Min Temperature 47 °F 44 °F 43 °F (2015)
Degree Days  
Heating Degree Days 7    
Growing Degree Days 8 (Base 50)    
Moisture  
Dew Point 48 °F    
Average Humidity 70    
Maximum Humidity 87    
Minimum Humidity 41    
Precipitation  
Precipitation 0.00 in 0.07 in - ()
Sea Level Pressure  
Sea Level Pressure 30.15 in    
Wind  
Wind Speed 2 mph ()    
Max Wind Speed 8 mph    
Max Gust Speed -    
Averages and records for this station are not official NWS values.
T = Trace of Precipitation, MM = Missing Value Source: Averaged Metar Reports

Daily Weather History Graph

Daily Weather History Graph

Search for Another Location

Airport or City:

Astronomy

Sep. 15, 2012 Rise Set
Actual Time 6:51 AM PDT 7:25 PM PDT
Civil Twilight 6:19 AM PDT 7:56 PM PDT
Nautical Twilight 5:42 AM PDT 8:34 PM PDT
Astronomical Twilight 5:02 AM PDT 9:13 PM PDT
Moon 6:31 AM PDT (9/15) 6:53 PM PDT (9/15)
Length of Visible Light 13h 37m
Length of Day
12h 33m
Waning Crescent, 0% of the Moon is Illuminated
Sep 15
Waning Crescent
Sep 15
New
Sep 22
First Quarter
Sep 29
Full
Oct 8
Last Quarter

Hourly Weather History & Observations

Time (PDT) Temp. Dew Point Humidity Pressure Visibility Wind Dir Wind Speed Gust Speed Precip Events Conditions
12:00 AM 53.6 °F 48.2 °F 82% 30.06 in 30.0 mi Calm Calm - N/A   Mostly Cloudy
1:00 AM 51.8 °F 46.4 °F 82% 30.07 in 30.0 mi Calm Calm - N/A   Mostly Cloudy
2:00 AM 51.8 °F 46.4 °F 82% 30.08 in 30.0 mi Calm Calm - N/A   Scattered Clouds
3:00 AM 51.8 °F 46.4 °F 82% 30.10 in 30.0 mi Calm Calm - N/A   Scattered Clouds
4:00 AM 51.8 °F 46.4 °F 82% 30.10 in 30.0 mi Calm Calm - N/A   Partly Cloudy
5:00 AM 49 °F 46 °F 86% 30.11 in 28 mi Calm Calm - -   Clear
5:00 AM 50.0 °F 46.4 °F 87% 30.11 in 30.0 mi Calm Calm - N/A   Scattered Clouds
6:00 AM 50.0 °F 46.4 °F 87% 30.12 in 30.0 mi Calm Calm - N/A   Mostly Cloudy
7:00 AM 50.0 °F 46.4 °F 87% 30.14 in 30.0 mi Calm Calm - N/A   Mostly Cloudy
8:00 AM 50.0 °F 46.4 °F 87% 30.15 in 30.0 mi Calm Calm - N/A   Mostly Cloudy
9:00 AM 59.0 °F 50.0 °F 72% 30.16 in 30.0 mi Calm Calm - N/A   Mostly Cloudy
10:00 AM 62.6 °F 50.0 °F 63% 30.17 in 30.0 mi SE 3.5 mph - N/A   Scattered Clouds
11:00 AM 65 °F 49 °F 47% 30.18 in 28 mi East 3.5 mph - -   Clear
11:00 AM 66.2 °F 50.0 °F 56% 30.18 in 30.0 mi East 3.5 mph - N/A   Scattered Clouds
12:00 PM 66.2 °F 50.0 °F 56% 30.18 in 30.0 mi NE 6.9 mph - N/A   Partly Cloudy
1:00 PM 66.2 °F 50.0 °F 56% 30.18 in 30.0 mi East 8.1 mph - N/A   Partly Cloudy
2:00 PM 68.0 °F 50.0 °F 52% 30.17 in 30.0 mi ESE 8.1 mph - N/A   Partly Cloudy
3:00 PM 69.8 °F 50.0 °F 49% 30.17 in 30.0 mi East 8.1 mph - N/A   Partly Cloudy
4:00 PM 68.0 °F 50.0 °F 52% 30.17 in 30.0 mi East 5.8 mph - N/A   Partly Cloudy
5:00 PM 69 °F 50 °F 41% 30.16 in 28 mi SE 6.9 mph - -   Scattered Clouds
5:00 PM 69.8 °F 50.0 °F 49% 30.16 in 30.0 mi SE 6.9 mph - N/A   Partly Cloudy
6:00 PM 66.2 °F 50.0 °F 56% 30.14 in 30.0 mi ESE 5.8 mph - N/A   Partly Cloudy
7:00 PM 64.4 °F 50.0 °F 59% 30.15 in 30.0 mi Calm Calm - N/A   Partly Cloudy
8:00 PM 57.2 °F 48.2 °F 72% 30.16 in 30.0 mi Calm Calm - N/A   Partly Cloudy
9:00 PM 53.6 °F 46.4 °F 77% 30.17 in 30.0 mi Calm Calm - N/A   Partly Cloudy
10:00 PM 50.0 °F 46.4 °F 87% 30.19 in 30.0 mi Calm Calm - N/A   Partly Cloudy
11:00 PM 52 °F 47 °F 77% 30.18 in 28 mi Calm Calm - -  
11:00 PM 51.8 °F 46.4 °F 82% 30.18 in 30.0 mi Calm Calm - N/A   Clear